Location: Loges du Chêne
(48.1500°N, 1.4833°W)
Time: 05:29:25
(UTC+00:00)

Daily predictions for brighter satellites

Satellite Brightness Start Highest point End
(mag) Time Altitude Azimuth Time Altitude Azimuth Time Altitude Azimuth
Cosmos 1825 2.1 00:04:51 51° SE 00:05:19 57° E 00:08:42 10° NNE
SL-4 R/B 2.1 00:01:55 10° WNW 00:05:53 52° SSW 00:06:37 46° S
Cosmos 2154 Rocket 4.4 00:07:15 28° SSE 00:10:29 55° E 00:16:36 10° NNE
Cosmos 2297 Rocket 2.2 00:09:02 26° SW 00:12:18 77° WNW 00:17:59 10° NNE
NOSS 3-2 (A) 4.2 00:12:23 25° SE 00:13:52 28° ESE 00:18:50 10° NE
Okean 1 Rocket 3.1 00:10:04 10° N 00:14:25 72° ENE 00:16:03 37° SSE
Cosmos 2219 4.0 00:14:01 27° SSE 00:16:10 37° ESE 00:21:17 10° NE
Aureole 1 Rocket 4.3 00:17:04 21° ESE 00:17:50 22° E 00:21:09 10° NE
PSLV R/B 3.7 00:15:36 10° N 00:19:47 63° WNW 00:21:22 35° SW
Cosmos 1354 Rocket 4.2 00:25:11 27° SW 00:28:04 66° WNW 00:33:22 10° NNE
COSMOS 2428 4.4 00:27:23 10° WNW 00:31:01 18° W 00:32:53 15° WSW
Cosmos 2084 Rocket 3.4 00:31:32 31° SW 00:33:30 76° NW 00:37:38 10° NE
Resurs 1-4 Rocket 4.5 00:32:10 10° ENE 00:34:00 12° E 00:35:50 10° ESE
H-2A R/B 2.1 00:30:07 10° N 00:34:22 69° WNW 00:35:54 37° SW
Cosmos 1975 Rocket 4.1 00:37:42 25° SE 00:39:30 36° E 00:43:33 10° NNE
Cosmos 292 Rocket 4.4 00:40:12 30° SSE 00:42:00 45° ESE 00:46:35 10° NE
Cosmos 2263 Rocket 2.8 00:42:06 27° SSE 00:44:34 43° ESE 00:49:48 10° NE
Cosmos 405 Rocket 4.3 00:42:52 10° NW 00:45:42 21° W 00:46:23 20° WSW
BlueWalker 3 3.1 00:43:20 10° W 00:46:55 42° NNW 00:50:31 10° ENE
BREEZE-M DEB (TANK) 3.8 00:45:24 11° W 00:48:17 80° N 00:56:20 10° E
Orbus 7S? 4.5 00:45:56 10° NW 00:48:24 33° NNE 00:51:28 10° E
Cosmos 332 Rocket 4.2 00:48:13 27° SW 00:50:45 57° WNW 00:55:36 10° NNE
Cosmos 1455 Rocket 3.2 00:46:27 10° N 00:50:54 74° ENE 00:52:57 32° SSE
Cosmos 2074 Rocket 4.2 00:49:56 26° SSW 00:53:25 61° WNW 00:59:35 10° N
Okean 2 Rocket 4.3 00:50:01 10° NNW 00:53:55 30° W 00:55:21 25° WSW
Cosmos 1680 Rocket 4.5 00:51:57 10° NNW 00:56:56 44° ENE 01:01:54 10° SE
Cosmos 2341 Rocket 4.5 00:56:40 22° SSE 01:00:34 53° E 01:06:36 10° NNE
Cosmos 1818 3.9 00:57:07 10° NW 01:02:36 66° NE 01:08:02 10° SE
Helios 1A Rocket 3.0 01:02:09 29° SE 01:03:57 65° ENE 01:07:43 10° N
Cosmos 1025 Rocket 3.1 01:02:30 35° SSW 01:04:13 65° W 01:08:31 10° N
Cosmos 1461 3.8 01:06:45 28° SSE 01:07:43 32° ESE 01:11:14 10° NE
COSMOS 2455 4.4 01:03:15 10° W 01:08:34 31° NW 01:13:55 10° NNE
Cosmos 990 Rocket 4.2 01:08:08 27° SW 01:10:54 64° WNW 01:16:01 10° NNE
TIMED 4.4 01:10:13 35° SSW 01:12:00 86° ESE 01:16:20 10° NNE
Cosmos 1892 4.4 01:11:24 16° W 01:12:38 19° WNW 01:15:15 10° NNW
CENTAUR R/B 2.6 01:11:48 22° SW 01:15:48 79° NW 01:23:03 10° NE
SL-19 R/B 3.5 01:14:40 10° NNE 01:17:41 72° ESE 01:18:11 54° SSE
In-Cosmos 22 Rocket 4.3 01:14:28 27° S 01:17:50 82° E 01:23:41 10° NNE
IDEFIX/ARIANE 42P 3.6 01:17:16 10° NNE 01:22:09 38° E 01:25:41 17° SSE
SL-16 R/B 2.5 01:17:59 10° NW 01:23:30 51° WSW 01:26:33 25° S
Cosmos 1869 3.2 01:24:18 10° N 01:28:01 75° E 01:29:52 28° SSE
Cosmos 2237 Rocket 4.0 01:26:16 10° WNW 01:29:17 15° W 01:30:46 13° WSW
GEOS 3 Rocket 4.1 01:28:43 10° NE 01:33:47 56° NW 01:37:52 15° WSW
Cosmos 2082 3.7 01:31:20 25° SSW 01:34:45 86° WNW 01:40:24 10° NNE
CZ-4C R/B 4.0 01:30:35 10° W 01:34:56 28° NNW 01:40:16 10° NE
Cosmos 2218 Rocket 4.1 01:31:20 21° S 01:35:39 75° E 01:41:50 10° NNE
Cosmos 2227 Rocket 3.3 01:32:02 14° WSW 01:36:31 37° NW 01:41:47 10° NNE
Cosmos 1943 3.4 01:31:52 10° NNW 01:37:31 74° ENE 01:43:07 10° SSE
CZ-2C R/B 3.3 01:32:30 10° SE 01:37:38 54° ENE 01:42:54 10° N
CZ-2D R/B 3.2 01:32:44 10° NNE 01:37:41 37° E 01:41:47 14° SSE
Cosmos 1437 Rocket 4.5 01:35:31 13° SE 01:38:08 25° E 01:41:16 10° NE
Cosmos 2366 rocket 4.0 01:37:03 21° S 01:41:25 85° E 01:47:41 10° N
Cosmos 372 Rocket 4.0 01:40:51 25° SSW 01:44:00 81° WNW 01:49:15 10° NNE
MOZ.5/SAFIR/RUBIN 5/SL-8 3.7 01:43:48 22° S 01:46:47 71° WSW 01:51:26 10° NNW
Meteor 1-11 4.4 01:49:40 22° SSW 01:53:29 67° WNW 01:59:17 10° N
Cosmos 923 Rocket 4.3 01:52:02 10° NNW 01:57:05 48° WSW 02:00:28 20° S
NPP 3.8 01:51:46 10° NNE 01:57:11 72° ESE 02:01:12 18° S
Cosmos 2297 Rocket 4.4 01:53:26 10° W 01:57:19 19° NW 02:01:14 10° N
ADEOS II 3.2 01:54:13 10° NNE 01:59:07 38° E 02:03:54 10° SSE
Cosmos 2219 4.1 01:55:55 15° WSW 02:00:15 41° NW 02:05:35 10° NNE
Aureole 1 Rocket 4.2 01:58:23 17° WSW 02:00:44 32° NW 02:04:50 10° N
Cosmos 2228 2.9 01:56:33 10° NNW 02:00:53 75° W 02:03:53 19° S
Cosmos 1544 Rocket 3.8 01:58:18 10° NNW 02:02:39 54° W 02:05:22 21° SSW
Cosmos 1937 Rocket 3.7 01:59:45 21° SW 02:03:18 66° WNW 02:08:33 10° NNE
NOSS 3-2 (A) 3.7 01:59:43 15° WSW 02:04:08 58° NW 02:10:27 10° NE
Cosmos 1606 3.3 02:02:32 10° NNW 02:05:51 36° W 02:07:22 24° SW
Cosmos 1898 Rocket 4.1 02:04:35 18° SW 02:08:13 45° WNW 02:13:12 10° NNE
H-2A R/B 3.3 02:04:51 10° NNE 02:08:51 83° ESE 02:11:32 20° SSW
ALOS 4.0 02:05:45 10° NE 02:09:39 26° E 02:13:32 10° SSE
SL-16 R/B 3.3 02:03:42 10° SE 02:09:45 54° ENE 02:15:48 10° N
Cosmos 2227 4.3 02:05:48 19° SSW 02:10:01 73° ESE 02:15:47 10° NNE
NOSS 3-2 (C) 3.2 02:06:42 20° SW 02:10:32 84° SE 02:16:50 10° NE
SL-8 Rocket 4.3 02:07:58 19° SW 02:12:22 52° WNW 02:18:26 10° N
USA 267 4.4 02:06:52 10° ENE 02:12:27 29° SE 02:17:24 12° S
Resurs 1-4 Rocket 2.2 02:09:21 10° NNE 02:14:38 79° ESE 02:19:00 16° S
Cosmos 1812 4.4 02:20:31 10° N 02:23:42 29° ENE 02:26:52 10° SE
BlueWalker 3 3.3 02:22:03 10° WNW 02:25:37 40° N 02:29:11 10° E
Cosmos 2263 Rocket 3.2 02:23:46 12° WSW 02:28:34 36° NW 02:33:42 10° NNE
Cosmos 1727 Rocket 4.1 02:24:22 10° NNW 02:30:39 68° W 02:36:57 10° S
Cosmos 921 Rocket 2.9 02:30:38 10° NNW 02:34:54 81° WSW 02:39:03 10° SSE
COSMOS 2441 4.3 02:31:13 10° NNE 02:36:03 87° WNW 02:40:25 13° SSW
Cosmos 1606 Rocket 3.5 02:33:42 10° N 02:38:10 84° W 02:42:34 10° S
Cosmos 1680 Rocket 4.5 02:34:22 10° NW 02:38:48 29° W 02:42:30 13° SSW
Cosmos 724 4.4 02:38:36 10° NW 02:44:27 81° NE 02:50:18 10° SE
Cosmos 1461 4.0 02:42:16 10° WSW 02:45:51 32° NW 02:49:24 10° NNE
Cosmos 1536 Rocket 4.3 02:43:23 14° SW 02:46:51 41° WNW 02:51:03 10° N
Cosmos 1844 Rocket 2.7 02:42:29 13° SSW 02:47:35 83° ESE 02:53:11 10° NNE
USA 234 4.0 02:42:54 10° E 02:49:18 59° NNE 02:55:42 10° NW
Cosmos 2058 4.0 02:48:07 10° SSE 02:51:56 42° E 02:55:49 10° NNE
Cosmos 1726 Rocket 3.5 02:48:52 10° NNW 02:53:19 78° W 02:57:44 10° S
Cosmos 1238 Rocket 3.8 02:52:15 10° N 02:55:31 38° ENE 02:58:26 10° SE
Meteor 1-28 Rocket 3.1 02:53:43 10° S 02:57:12 59° W 03:00:44 10° NNW
IDEFIX/ARIANE 42P 3.6 02:56:54 10° N 03:01:37 34° WNW 03:06:16 10° SW
CENTAUR R/B 4.3 03:02:03 10° W 03:07:39 31° NNW 03:14:23 10° NE
CZ-2C R/B 3.7 03:05:34 10° N 03:10:45 45° WNW 03:15:38 10° SW
ASTEX 1 3.6 03:07:03 10° SSW 03:11:47 51° W 03:16:32 10° NNW
Cosmos 1603 4.4 03:07:09 10° NW 03:12:19 35° WSW 03:17:27 10° S
Envisat 3.7 03:07:36 10° NNE 03:12:34 52° E 03:17:30 10° S
Cosmos 1437 Rocket 4.0 03:10:25 10° SW 03:13:42 27° WNW 03:16:58 10° N
CZ-2C R/B 3.8 03:09:52 10° NNE 03:14:00 33° E 03:18:09 10° SSE
Cosmos 1048 Rocket 4.3 03:09:55 10° NNW 03:14:56 49° WSW 03:19:59 10° S
Iridium 2 3.0 03:13:55 10° SSW 03:16:18 45° W 03:18:42 10° N
USA 238 DEB 3.8 03:10:45 10° SW 03:16:58 71° NW 03:23:50 10° NE
USA 238 3.8 03:10:47 10° SW 03:17:01 72° NW 03:23:54 10° NE
CZ-2D R/B 3.0 03:12:49 10° N 03:17:39 36° WNW 03:22:25 10° SW
SAR-Lupe-1 4.1 03:14:13 10° NNE 03:17:49 86° ESE 03:21:24 10° SSW
Cosmos 1607 4.1 03:11:44 10° NW 03:17:56 53° WSW 03:24:00 10° SSE
CZ-2C R/B 3.8 03:14:00 10° SW 03:18:14 24° W 03:22:33 10° NW
FENGYUN 3A 4.2 03:18:36 10° N 03:23:43 46° WNW 03:28:50 10° SW
Cosmos 1125 Rocket 3.6 03:21:34 10° SSW 03:26:51 85° WNW 03:32:12 10° NNE
